[[{"header":{"parameterUnit":"m.s-1","parameterCategory":1,"la1":30.2991,"la2":30.254,"lo1":-89.0895,"lo2":-89.0444,"dy":0.0017,"dx":0.0017,"nx":28,"ny":28,"refTime":"2025-01-20T09:00:00:Z","depth":0,"parameterNumber":2,"parameterNumberName":"U-component_of_WINDS"},"data":[0,0,0,0,0,0,0,0,0,0,0,0,0,0,0,0,0,0,0,0,0,0,0,0,0,0,0,0,0,0,0,0,0,0,0,0,0,0,0,0,0,0,0,0,0,0,0,0,0,0,0,0,0,0,0,0,0,0,-0.4416,-0.4417,0,-0.4514,-0.4515,-0.4516,-0.4485,-0.4483,-0.448,-0.4478,-0.458,-0.4585,-0.4589,0,0,0,0,0,0,0,0,0,0,0,0,0,-0.4202,-0.4206,-0.4416,-0.4417,-0.4419,-0.4514,-0.4515,-0.4516,-0.4485,-0.4482,-0.448,-0.4477,-0.4579,-0.4584,-0.459,0,0,0,0,0,0,0,0,0,0,0,0,0,-0.4297,-0.4208,-0.4416,-0.4414,-0.4415,-0.4514,-0.4515,-0.4517,-0.4486,-0.4482,-0.4479,-0.4476,-0.4577,-0.4584,-0.4591,-0.4697,0,0,-0.4612,-0.4615,0,0,0,0,0,0,0,0,-0.4292,-0.4305,-0.4413,-0.4415,-0.4416,-0.4484,-0.4477,-0.4577,-0.4486,-0.4459,-0.4478,-0.4475,-0.4551,-0.456,-0.4585,-0.4702,-0.4706,-0.4613,-0.4617,-0.462,-0.4622,0,0,0,0,0,0,0,-0.4285,-0.4301,-0.4455,-0.4415,-0.4416,-0.4409,-0.4419,-0.4496,-0.4521,-0.4461,-0.4459,-0.4471,-0.4551,-0.4578,-0.4587,-0.4708,-0.4612,-0.4619,-0.4623,-0.4626,-0.4916,-0.4919,0,0,0,0,0,0,-0.4278,-0.4295,-0.4452,-0.4458,-0.4345,-0.4415,-0.4426,-0.4465,-0.452,-0.4526,-0.4473,-0.4469,-0.4568,-0.4579,-0.4591,-0.472,-0.462,-0.4626,-0.463,-0.4913,-0.4917,-0.4921,0,0,0,0,0,0,-0.4273,-0.4292,-0.4448,-0.4376,-0.4395,-0.4422,-0.4466,-0.4469,-0.4496,-0.453,-0.4534,-0.4497,-0.4566,-0.4581,-0.4671,-0.4723,-0.4629,-0.4636,-0.4908,-0.4914,-0.4919,-0.4978,0,0,0,0,0,0,-0.4267,-0.4291,-0.4332,-0.4377,-0.4399,-0.4527,-0.4469,-0.4473,-0.4508,-0.4504,-0.4553,-0.4558,-0.4565,-0.466,-0.4678,-0.4731,-0.4641,-0.4904,-0.4911,-0.4917,-0.4972,-0.4985,-0.4996,0,0,0,0,0,-0.426,-0.4345,-0.4334,-0.4353,-0.4451,-0.453,-0.4542,-0.4547,-0.4513,-0.4554,-0.4575,-0.4557,-0.4713,-0.467,-0.4689,-0.4745,-0.4901,-0.4909,-0.4917,-0.4967,-0.4983,-0.4996,0,0,0,0,0,0,-0.4306,-0.4351,-0.4339,-0.4442,-0.4482,-0.4524,-0.4577,-0.4564,-0.4616,-0.4609,-0.4613,-0.4625,-0.4717,-0.4739,-0.469,-0.4851,-0.4802,-0.4814,-0.4833,-0.4849,-0.4861,-0.4855,-0.4647,0,0,0,0,0,-0.4328,-0.4388,-0.4423,-0.451,-0.4531,-0.455,-0.4585,-0.4585,-0.4627,-0.4644,-0.4672,-0.4714,-0.4772,-0.4811,-0.4867,-0.4973,-0.4984,-0.5021,-0.5033,-0.5043,-0.5055,-0.5113,-0.513,-0.4947,-0.4947,-0.4946,0,0,-0.4374,-0.4406,-0.4444,-0.452,-0.4552,-0.4614,-0.4565,-0.4633,-0.468,-0.4655,-0.4742,-0.4763,-0.481,-0.4909,-0.4954,-0.493,-0.5107,-0.5053,-0.5061,-0.5067,-0.5123,-0.5141,-0.5156,-0.4952,-0.4951,-0.495,0,0,-0.4491,-0.452,-0.4596,-0.4628,-0.4676,-0.4687,-0.4705,-0.4749,-0.4763,-0.4849,-0.4832,-0.4886,-0.4987,-0.5022,-0.5052,-0.5179,-0.5164,-0.5197,-0.5262,-0.5319,-0.5333,-0.5346,-0.5393,-0.5409,-0.5207,-0.5207,-0.5208,0,-0.4543,-0.4636,-0.4637,-0.4707,-0.4741,-0.4719,-0.4797,-0.4827,-0.4891,-0.4915,-0.4887,-0.5013,-0.5043,-0.515,-0.518,-0.5205,-0.5226,-0.5193,-0.5331,-0.5344,-0.5356,-0.5401,-0.5418,-0.5211,-0.5211,-0.521,-0.521,0,-0.4699,-0.4763,-0.4819,-0.488,-0.492,-0.4993,-0.5005,-0.5045,-0.5041,-0.5055,-0.5144,-0.5178,-0.5241,-0.5265,-0.5262,-0.5371,-0.5356,-0.5329,-0.5281,-0.5377,-0.5419,-0.5436,-0.5217,-0.5215,-0.5214,-0.5213,0,0,-0.4851,-0.491,-0.4931,-0.4958,-0.5008,-0.5058,-0.5129,-0.5189,-0.5224,-0.5267,-0.5328,-0.5412,-0.5388,-0.5423,-0.5422,-0.5472,-0.5572,-0.5439,-0.5441,-0.5465,-0.5696,-0.5717,-0.5737,-0.556,-0.5563,-0.5566,-0.5692,0,-0.4974,-0.51,-0.5102,-0.5217,-0.5277,-0.5256,-0.5318,-0.5355,-0.537,-0.5423,-0.5438,-0.5499,-0.5461,-0.5482,-0.553,-0.555,-0.5619,-0.554,-0.5618,-0.5621,-0.561,-0.5759,-0.5783,-0.59,-0.5709,-0.5711,-0.5713,0,-0.5136,-0.5184,-0.5305,-0.5345,-0.5371,-0.5427,-0.5482,-0.5532,-0.5573,-0.558,-0.5617,-0.5609,-0.5681,-0.5628,-0.5728,-0.5674,-0.5706,-0.572,-0.5724,-0.5735,-0.5676,-0.5776,-0.5938,-0.5957,-0.5739,-0.5737,-0.5735,0,-0.5237,-0.5332,-0.5417,-0.5441,-0.5489,-0.5529,-0.5551,-0.5589,-0.5625,-0.5672,-0.5695,-0.575,-0.5781,-0.5824,-0.5831,-0.5791,-0.5932,-0.5878,-0.5941,-0.5941,-0.5975,-0.5973,-0.6147,-0.599,-0.5989,-0.5989,-0.5989,0,-0.5377,-0.5452,-0.5464,-0.5517,-0.5601,-0.5601,-0.5684,-0.5702,-0.5735,-0.5791,-0.5775,-0.5828,-0.5832,-0.5886,-0.5891,-0.5974,-0.5987,-0.5995,-0.5997,-0.5999,-0.5998,-0.6022,-0.6015,-0.5994,-0.5993,-0.5992,-0.5991,0,-0.5507,-0.5517,-0.5609,-0.5646,-0.5657,-0.5717,-0.5749,-0.58,-0.5811,-0.5882,-0.5898,-0.5917,-0.598,-0.5989,-0.6063,-0.6066,-0.6166,-0.6157,-0.6153,-0.6152,-0.6215,-0.621,-0.6413,-0.644,-0.6262,-0.6264,-0.6265,0,-0.5596,-0.5654,-0.5697,-0.5733,-0.5757,-0.5815,-0.5851,-0.5852,-0.5891,-0.594,-0.5985,-0.6045,-0.6094,-0.6195,-0.6215,-0.6271,-0.6265,-0.6332,-0.6274,-0.6274,-0.6269,-0.6267,-0.6273,-0.6345,-0.6347,-0.6348,-0.6349,0,-0.5755,-0.5757,-0.581,-0.5864,-0.5907,-0.595,-0.599,-0.6021,-0.6027,-0.607,-0.6134,-0.6172,-0.6246,-0.6307,-0.6361,-0.6383,-0.6369,-0.6367,-0.6385,-0.6389,-0.6385,-0.639,-0.6186,-0.6363,-0.6362,-0.6361,-0.636,-0.636,-0.587,-0.592,-0.5958,-0.6017,-0.6047,-0.6085,-0.6134,-0.615,-0.6203,-0.6264,-0.6261,-0.6331,-0.6368,-0.644,-0.6466,-0.6521,-0.6499,-0.6524,-0.6531,-0.6538,-0.6545,-0.6374,-0.653,-0.653,-0.6529,-0.6529,-0.6529,0,-0.603,-0.6053,-0.6106,-0.6163,-0.6209,-0.6188,-0.6231,-0.6271,-0.6333,-0.6369,-0.6417,-0.649,-0.6548,-0.6571,-0.6628,-0.6667,-0.6662,-0.6682,-0.6681,-0.6687,-0.656,-0.6541,-0.6686,-0.6686,-0.6686,-0.6686,-0.6686,-0.6686,-0.6119,-0.6204,-0.6209,-0.6308,-0.633,-0.6398,-0.6425,-0.6459,-0.6488,-0.657,-0.6618,-0.6632,-0.6663,-0.6722,-0.6774,-0.6779,-0.6802,-0.6826,-0.6829,-0.6711,-0.6696,-0.6681,-0.6662,-0.683,-0.6831,-0.6951,-0.6952,-0.6953]},{"header":{"parameterUnit":"m.s-1","parameterCategory":1,"la1":30.2991,"la2":30.254,"lo1":-89.0895,"lo2":-89.0444,"dy":0.0017,"dx":0.0017,"nx":28,"ny":28,"refTime":"2025-01-20T09:00:00:Z","depth":0,"parameterNumber":3,"parameterNumberName":"V-component_of_WINDS"},"data":[0,0,0,0,0,0,0,0,0,0,0,0,0,0,0,0,0,0,0,0,0,0,0,0,0,0,0,0,0,0,0,0,0,0,0,0,0,0,0,0,0,0,0,0,0,0,0,0,0,0,0,0,0,0,0,0,0,0,-7.4281,-7.4283,0,-7.4493,-7.4495,-7.4497,-7.44,-7.4394,-7.4389,-7.4384,-7.4593,-7.4604,-7.4614,0,0,0,0,0,0,0,0,0,0,0,0,0,-7.3785,-7.3794,-7.4281,-7.4284,-7.4286,-7.4492,-7.4495,-7.4498,-7.44,-7.4394,-7.4388,-7.4382,-7.459,-7.4602,-7.4615,0,0,0,0,0,0,0,0,0,0,0,0,0,-7.3999,-7.3798,-7.428,-7.4263,-7.4263,-7.4492,-7.4495,-7.4499,-7.4402,-7.4394,-7.4386,-7.4379,-7.4586,-7.4601,-7.4617,-7.4873,0,0,-7.4665,-7.4672,0,0,0,0,0,0,0,0,-7.3987,-7.4017,-7.4263,-7.4264,-7.4265,-7.4412,-7.4397,-7.4624,-7.4404,-7.4349,-7.4384,-7.4375,-7.4539,-7.4558,-7.4615,-7.4883,-7.4892,-7.4666,-7.4676,-7.4683,-7.4687,0,0,0,0,0,0,0,-7.3972,-7.4007,-7.4364,-7.4266,-7.4268,-7.4241,-7.4263,-7.4439,-7.4486,-7.4353,-7.4347,-7.4373,-7.4538,-7.46,-7.4619,-7.4895,-7.4666,-7.468,-7.469,-7.4696,-7.5382,-7.539,0,0,0,0,0,0,-7.3959,-7.3996,-7.4358,-7.4371,-7.4104,-7.4257,-7.4281,-7.4373,-7.4484,-7.4493,-7.438,-7.4368,-7.4577,-7.4601,-7.4626,-7.4933,-7.4682,-7.4697,-7.4706,-7.5373,-7.5384,-7.5393,0,0,0,0,0,0,-7.3948,-7.3992,-7.4349,-7.4182,-7.4225,-7.4274,-7.4377,-7.4381,-7.4443,-7.4504,-7.4511,-7.4435,-7.4572,-7.4604,-7.4812,-7.4939,-7.4704,-7.4719,-7.5363,-7.5376,-7.5388,-7.555,0,0,0,0,0,0,-7.3935,-7.3989,-7.4089,-7.4185,-7.4234,-7.4535,-7.4385,-7.4391,-7.4471,-7.4458,-7.4558,-7.4566,-7.4568,-7.479,-7.4828,-7.4956,-7.4731,-7.5352,-7.5369,-7.5384,-7.5533,-7.5567,-7.5595,0,0,0,0,0,-7.3917,-7.4124,-7.4094,-7.4138,-7.4361,-7.4543,-7.4571,-7.457,-7.4482,-7.4581,-7.462,-7.4563,-7.4919,-7.4812,-7.4854,-7.4989,-7.5344,-7.5364,-7.5383,-7.5519,-7.556,-7.5594,0,0,0,0,0,0,-7.404,-7.4136,-7.4104,-7.4349,-7.4439,-7.4526,-7.4652,-7.4614,-7.4728,-7.471,-7.4702,-7.4726,-7.4942,-7.4986,-7.4865,-7.5242,-7.5117,-7.5146,-7.5206,-7.5245,-7.5276,-7.5261,-7.4744,0,0,0,0,0,-7.4095,-7.4238,-7.4313,-7.4522,-7.4569,-7.4603,-7.4682,-7.4674,-7.4765,-7.4802,-7.4856,-7.4945,-7.5076,-7.5163,-7.5287,-7.5538,-7.5558,-7.5652,-7.5683,-7.5708,-7.5734,-7.5869,-7.5911,-7.5458,-7.5458,-7.5457,0,0,-7.4212,-7.4282,-7.4372,-7.4548,-7.4617,-7.4762,-7.4635,-7.4794,-7.4901,-7.4825,-7.5026,-7.5069,-7.5167,-7.5398,-7.5503,-7.5442,-7.5863,-7.5733,-7.5753,-7.5765,-7.5893,-7.5936,-7.5974,-7.5471,-7.5469,-7.5467,0,0,-7.4498,-7.4566,-7.4747,-7.4819,-7.4925,-7.4946,-7.4989,-7.5083,-7.5109,-7.5311,-7.5257,-7.5382,-7.5609,-7.5681,-7.5748,-7.606,-7.6012,-7.61,-7.6263,-7.6394,-7.643,-7.6462,-7.6573,-7.6613,-7.6125,-7.6126,-7.6126,0,-7.4628,-7.4848,-7.4844,-7.5009,-7.5087,-7.5027,-7.5209,-7.5277,-7.5418,-7.5472,-7.5402,-7.5685,-7.5747,-7.5994,-7.607,-7.6126,-7.6174,-7.6089,-7.6426,-7.6457,-7.6487,-7.6593,-7.6634,-7.6136,-7.6135,-7.6134,-7.6133,0,-7.5002,-7.5155,-7.5288,-7.5428,-7.5521,-7.5693,-7.5714,-7.5808,-7.5791,-7.5819,-7.6024,-7.6096,-7.6234,-7.6291,-7.6276,-7.6536,-7.6495,-7.6426,-7.63,-7.654,-7.6639,-7.668,-7.615,-7.6147,-7.6144,-7.6141,0,0,-7.5373,-7.5509,-7.5558,-7.562,-7.5732,-7.5848,-7.6016,-7.6153,-7.6234,-7.6332,-7.6471,-7.6665,-7.6601,-7.6677,-7.6668,-7.6784,-7.7026,-7.67,-7.6702,-7.6759,-7.7317,-7.7368,-7.7416,-7.6995,-7.7002,-7.7008,-7.7308,0,-7.5667,-7.5965,-7.5967,-7.624,-7.638,-7.6324,-7.647,-7.6553,-7.6583,-7.6704,-7.6735,-7.6873,-7.6779,-7.6824,-7.6936,-7.6974,-7.7138,-7.6952,-7.7123,-7.7129,-7.7101,-7.7468,-7.7523,-7.7803,-7.7347,-7.7354,-7.7358,0,-7.6051,-7.6165,-7.6453,-7.6544,-7.6602,-7.6734,-7.6859,-7.6976,-7.7068,-7.7081,-7.7166,-7.714,-7.7308,-7.7177,-7.7407,-7.7281,-7.735,-7.7379,-7.7389,-7.7406,-7.7259,-7.7494,-7.7892,-7.7934,-7.742,-7.7415,-7.741,0,-7.6293,-7.6517,-7.6718,-7.6773,-7.6884,-7.6978,-7.7028,-7.7113,-7.7195,-7.7303,-7.7355,-7.7481,-7.755,-7.7646,-7.7653,-7.7557,-7.7886,-7.7755,-7.79,-7.79,-7.7972,-7.7968,-7.8388,-7.8017,-7.8016,-7.8015,-7.8014,0,-7.6622,-7.6801,-7.6828,-7.6952,-7.715,-7.7148,-7.7342,-7.7384,-7.7459,-7.7588,-7.7546,-7.7667,-7.7669,-7.7792,-7.7798,-7.7988,-7.8019,-7.8033,-7.8033,-7.8038,-7.8036,-7.8084,-7.8065,-7.8026,-7.8024,-7.8022,-7.802,0,-7.6926,-7.6952,-7.7168,-7.7256,-7.7282,-7.7423,-7.7497,-7.7614,-7.7639,-7.7803,-7.7841,-7.788,-7.8023,-7.804,-7.8205,-7.8209,-7.8438,-7.8416,-7.8408,-7.8405,-7.8549,-7.8535,-7.9015,-7.9077,-7.8665,-7.8669,-7.8672,0,-7.7135,-7.7271,-7.7374,-7.7459,-7.7515,-7.7651,-7.7735,-7.7738,-7.7826,-7.7941,-7.8044,-7.8183,-7.8294,-7.8524,-7.8566,-7.8692,-7.8673,-7.8832,-7.8691,-7.8692,-7.8675,-7.8668,-7.8681,-7.8859,-7.8864,-7.8868,-7.8871,0,-7.7503,-7.7509,-7.7633,-7.7762,-7.7864,-7.7965,-7.8059,-7.813,-7.8144,-7.8245,-7.8392,-7.8479,-7.8648,-7.8786,-7.891,-7.8958,-7.8917,-7.8915,-7.8955,-7.8961,-7.8951,-7.8959,-7.8483,-7.8904,-7.89,-7.8898,-7.8896,-7.8895,-7.7766,-7.7884,-7.7975,-7.8114,-7.8186,-7.8275,-7.839,-7.843,-7.8553,-7.8694,-7.8686,-7.8848,-7.8934,-7.9097,-7.9154,-7.9278,-7.9225,-7.9284,-7.9298,-7.9313,-7.9328,-7.8931,-7.9301,-7.93,-7.9299,-7.9298,-7.9297,0,-7.8131,-7.8187,-7.8316,-7.845,-7.8559,-7.8513,-7.8614,-7.8708,-7.8852,-7.8937,-7.9048,-7.9216,-7.9349,-7.9401,-7.9531,-7.962,-7.9604,-7.9654,-7.9647,-7.9659,-7.9368,-7.932,-7.9665,-7.9665,-7.9664,-7.9664,-7.9664,-7.9664,-7.8335,-7.8533,-7.855,-7.8781,-7.8835,-7.8995,-7.9057,-7.9138,-7.9206,-7.9397,-7.9508,-7.9542,-7.9613,-7.9748,-7.9867,-7.9878,-7.9928,-7.9986,-7.999,-7.9717,-7.968,-7.9644,-7.96,-7.9997,-7.9998,-8.0271,-8.0273,-8.0275]}]]